This is the latest recevied weather packets stored in our database for station/object K5FEP. If no packets are shown the sender has not sent any weather packets the latest 10 day(s).
| Time | Temp. | Humidity | Pressure | Rain* | Wind** | Luminosity | Snow |
|---|---|---|---|---|---|---|---|
| 1777220557 | 12.78° C | 81% | 1016.8 hPa | 0 mm | - | 232 W/m² | - |
| 1777220253 | 12.78° C | 82% | 1016.6 hPa | 0 mm | - | 318 W/m² | - |
| 1777219948 | 12.78° C | 81% | 1016.9 hPa | 0 mm | - | 335 W/m² | - |
| 1777219646 | 12.78° C | 81% | 1016.8 hPa | 0 mm | - | 229 W/m² | - |
| 1777219343 | 12.78° C | 84% | 1016.5 hPa | 0 mm | - | 272 W/m² | - |
| 1777219039 | 12.78° C | 84% | 1016.3 hPa | 0 mm | - | 214 W/m² | - |
| 1777218735 | 12.78° C | 83% | 1016.5 hPa | 0 mm | - | 399 W/m² | - |
| 1777218430 | 12.78° C | 83% | 1016.5 hPa | 0 mm | - | 250 W/m² | - |
| 1777218126 | 12.78° C | 82% | 1016.5 hPa | 0 mm | - | 404 W/m² | - |
| 1777217823 | 12.22° C | 85% | 1016.2 hPa | 0 mm | - | 304 W/m² | - |
| 1777217518 | 12.22° C | 85% | 1016.5 hPa | 0 mm | - | 256 W/m² | - |
| 1777217214 | 12.22° C | 86% | 1016.3 hPa | 0 mm | - | 265 W/m² | - |
| 1777216911 | 12.22° C | 85% | 1016.4 hPa | 0 mm | - | 351 W/m² | - |
| 1777216607 | 12.22° C | 87% | 1016.1 hPa | 0 mm | - | 363 W/m² | - |
| 1777216303 | 12.22° C | 87% | 1016.1 hPa | 0 mm | - | 186 W/m² | - |
| 1777216002 | 11.67° C | 89% | 1016.2 hPa | 0 mm | - | 227 W/m² | - |
| 1777215699 | 11.67° C | 89% | 1016.4 hPa | 0 mm | - | 196 W/m² | - |
| 1777215398 | 11.67° C | 88% | 1016.2 hPa | 0 mm | - | 173 W/m² | - |
| 1777215096 | 11.67° C | 90% | 1016.3 hPa | 0 mm | - | 236 W/m² | - |
| 1777214790 | 11.67° C | 89% | 1016.2 hPa | 0 mm | - | 119 W/m² | - |
| 1777214485 | 11.67° C | 90% | 1016.2 hPa | 0 mm | - | 195 W/m² | - |
| 1777214180 | 11.67° C | 90% | 1016.2 hPa | 0 mm | - | 118 W/m² | - |
| 1777213874 | 11.67° C | 89% | 1016.1 hPa | 0 mm | - | 104 W/m² | - |
| 1777213574 | 11.67° C | 88% | 1016.1 hPa | 0 mm | - | 74 W/m² | - |
| 1777213271 | 12.22° C | 87% | 1016 hPa | 0 mm | - | 89 W/m² | - |
* Rain latest hour (hover to see other rain measurements)
** Current wind speed in m/s (hover to see current wind gust speed)